EUTELSAT 7B

Last updated on Fri Feb 06 2026 00:02:51 GMT+0000 (Coordinated Universal Time)

1 39163U 13022A 26036.70006576 .00000046 00000+0 00000+0 0 9996 2 39163 0.0679 354.1563 0006159 349.1632 51.5101 1.00272454 46628
UTC large
Height (km)
Speed (km/s)
/
Latitude / Longitude
Inclination (degrees)
Orbital Period (minutes)
Azimuth
Elevation
Range (km)
Doppler Factor

Next 0 passes for location: London (51.5072 / 0.1276)

Sorry there are no passes over London.